sat.trackr.live / text

‹ back to catalog

STARLINK-30962

NORAD 58458 · 2023-183X

PAYLOAD ACTIVE UNKNOWN

§ Identity

Operator
Country
US
Launch date
2023-11-28
Launch site
AFETR
Launch vehicle
Mass (kg)
RCS (m²)

Purposes: comms

External: N2YO · Heavens-Above · Gunter

§ Orbital elements

Epoch: 2026-05-24T21:24:59.699232Z

Period
94.27 min
Inclination
43.0072°
Eccentricity
0.0001651
Mean motion
15.27574698 rev/d
Perigee alt
481.9 km
Apogee alt
484.2 km
Semi-major
6,861.2 km
B*
5.8259e-6
RAAN
330.8282°
Arg perigee
268.1762°
Mean anomaly
91.8901°
Rev number
13,839

§ Raw data

STARLINK-309621 58458U 23183X   26144.89235763 -.00000102  00000+0  58259-5 0  99942 58458  43.0072 330.8282 0001651 268.1762  91.8901 15.27574698138395

JSON: /api/v1/satellites/58458 · /tle

For live sub-satellite position, see the globe view (requires WebGL).

§ Visibility from observer

Set your observer location to see the next 7 days of passes ≥ 10°. The values pass through the URL so the page stays shareable.

No JS? Fill the form by hand. The geolocation button needs JavaScript.